Location: Binningen
(47.7924°N, 8.7261°E)
Time: 20:28:56
(UTC+00:00)

Okean 1-7 - Pass Details

Date: 17 May 2021
Orbit: 591 x 617 km, 82.5° (Epoch: 21 June)

Event Time Altitude Azimuth Distance (km) Brightness Sun altitude
Exits shadow 22:08:56 57° 137° (SE) 711 3.0 -20.7°
Maximum altitude 22:09:30 64° 96° (E) 668 3.0 -20.8°
Drops below altitude 10° 22:13:46 10° 15° (NNE) 1,955 6.4 -21.0°
Sets 22:16:01 0° 13° (NNE) 2,867 7.5 -21.1°
